Preview of NWS' New Version of Forecast
This preview is not operational and should not be used for support decisions.

Regional Weather Roundup (RWR)

Issued by National Weather Service (NWS)

                            
000
ASUS44 KMEG 252110
RWRTN 
TENNESSEE HOURLY STATE WEATHER ROUNDUP
NATIONAL WEATHER SERVICE MEMPHIS TN
400 PM CDT SAT MAY 25 2019

TNZ002-004-019-021-049-052-054-088>092-252200-
WEST TENNESSEE
  
CITY           SKY/WX    TMP DP  RH WIND       PRES   REMARKS
MEMPHIS INTL   FAIR      89  67  47 SW9       30.08F HX  92           
NWS MEMPHIS      N/A     92 N/A N/A MISG        N/A                   
JACKSON        FAIR      89  66  46 SW10      30.10F HX  91           
SOMERVILLE     SUNNY     91  64  40 SW9G17    30.09S HX  93           
COVINGTON      MOSUNNY   90  66  45 W10       30.08S HX  92           
UNION CITY     SUNNY     90  64  43 SW10G16   30.07S HX  91           
BOLIVAR        MOSUNNY   90  64  43 S9G15     30.09F HX  91           
PARIS          SUNNY     88  66  48 S10       30.09F HX  90           
HUNTINGDON     SUNNY     90  64  43 SW9G15    30.09F HX  91           
LEXINGTON      MOSUNNY   90  66  45 SW9       30.10S HX  92           
SELMER         MOSUNNY   90  66  45 W8G16     30.10F HX  92           
SAVANNAH       MOSUNNY   91  64  40 SW10      30.10F HX  93           
$$

TNZ008-025-027-028-033-062-065-066-252200-
NORTH MIDDLE TENNESSEE
  
CITY           SKY/WX    TMP DP  RH WIND       PRES   REMARKS
NASHVILLE      FAIR      91  60  35 SW10G18   30.11F HX  90           
DICKSON        CLEAR     88  64  45 SW9G15    30.12S                  
CLARKSVILLE    FAIR      87  61  41 SW7       30.10F                  
LEBANON        PTCLDY    91  61  35 W9G17     30.08F HX  91           
SMYRNA         FAIR      92  65  40 W16       30.12S HX  94           
MURFREESBORO   PTCLDY    91  63  38 W10G17    30.09F HX  92           
COOKEVILLE     SUNNY     90  64  43 SW8G16    30.13S HX  91           
LIVINGSTON     PTCLDY    86  66  51 SW8       30.13F                  
CROSSVILLE     FAIR      84  63  49 SW9G18    30.19F                  
ROCKWOOD       PTCLDY    86  64  48 W7        30.16S                  
$$

TNZ061-075-076-078-094-096-097-252200-
SOUTH MIDDLE TENNESSEE
  
CITY           SKY/WX    TMP DP  RH WIND       PRES   REMARKS
LAWRENCEBURG   CLEAR     88  66  48 W8G15     30.13F HX  90           
LEWISBURG      PTCLDY    88  66  48 SW10      30.12S HX  90           
FAYETTEVILLE   MOSUNNY   88  66  48 SW6G13    30.13F HX  90           
TULLAHOMA      SUNNY     88  64  45 W12       30.13F                  
WINCHESTER     PTSUNNY   88  64  45 W7        30.13F                  
MCMINNVILLE    MOSUNNY   88  64  45 SW12      30.13F                  
COLUMBIA       MOSUNNY   90  64  43 W9G16     30.10F HX  91           
SHELBYVILLE    MOSUNNY   90  64  43 SW7G15    30.12F HX  91           
$$

TNZ017-018-042-046-047-252200-
NORTHEAST TENNESSEE
  
CITY           SKY/WX    TMP DP  RH WIND       PRES   REMARKS
TRI CITIES     FAIR      88  63  43 SW15      30.14S                  
ELIZABETHTON   FAIR      88  64  45 VRB7G18   30.13F                  
GREENEVILLE    CLEAR     88  61  40 SW7G23    30.15R                  
$$

TNZ012-013-036-069-073-074-252200-
CENTRAL EAST TENNESSEE
  
CITY           SKY/WX    TMP DP  RH WIND       PRES   REMARKS
KNOXVILLE      PTSUNNY   90  64  42 SW9       30.11F HX  91           
OAK RIDGE      FAIR      91  65  41 VRB5      30.12F HX  93           
DOWNTOWN KNOXV MOSUNNY   90  66  45 VRB6G16   30.11F HAZE    HX  92   
GATLINBURG     MOSUNNY   91  63  38 W9        30.11F HX  92           
MORRISTOWN     MOSUNNY   90  63  40 W10G17    30.12F HX  90           
JACKSBORO      MOSUNNY   90  63  40 SW9       30.15S HX  90           
$$

TNZ083-085-099-252200-
SOUTHEAST TENNESSEE
  
CITY           SKY/WX    TMP DP  RH WIND       PRES   REMARKS
CHATTANOOGA    FAIR      93  65  39 W12       30.12F HX  95           
DAYTON         MOCLDY    91  68  46 S6G13     30.11S HX  95           
$$

SKY/WX REPORTED AS FAIR MEANS FEW OR NO CLOUDS BELOW
12 THOUSAND FEET.